sat.trackr.live / text

‹ back to catalog

STARLINK-2513

NORAD 48317 · 2021-036AT

PAYLOAD ACTIVE UNKNOWN

§ Identity

Operator
Country
US
Launch date
2021-04-29
Launch site
AFETR
Launch vehicle
Mass (kg)
RCS (m²)

Purposes: comms

External: N2YO · Heavens-Above · Gunter

§ Orbital elements

Epoch: 2026-09-19T17:41:43.755072Z

Period
94.01 min
Inclination
53.1593°
Eccentricity
0.0001145
Mean motion
15.31697179 rev/d
Perigee alt
470.0 km
Apogee alt
471.5 km
Semi-major
6,848.9 km
B*
2.3510e-5
RAAN
265.1141°
Arg perigee
89.4244°
Mean anomaly
270.6889°
Rev number
29,795

§ Raw data

STARLINK-25131 48317U 21036AT  26262.73731198  .00000364  00000+0  23510-4 0  99992 48317  53.1593 265.1141 0001145  89.4244 270.6889 15.31697179297954

JSON: /api/v1/satellites/48317 · /tle

For live sub-satellite position, see the globe view (requires WebGL).

§ Visibility from observer

Set your observer location to see the next 7 days of passes ≥ 10°. The values pass through the URL so the page stays shareable.

No JS? Fill the form by hand. The geolocation button needs JavaScript.